Date,TemperatureHighF,TemperatureAvgF,TemperatureLowF,DewpointHighF,DewpointAvgF,DewpointLowF,HumidityHigh,HumidityAvg,HumidityLow,PressureMaxIn,PressureMinIn,WindSpeedMaxMPH,WindSpeedAvgMPH,GustSpeedMaxMPH,PrecipitationSumIn
2013-1-1,71.3,59.2,49.3,65.9,57.1,47.2,95,93,83,30.09,29.89,14,2,20,0.53
2013-1-2,49.2,45.2,40.9,47.3,42.8,39.3,94,91,84,30.25,30.07,16,2,16,0.10
2013-1-3,53.7,43.2,37.5,39.5,35.8,32.5,94,76,52,30.38,30.20,16,2,16,0.01
2013-1-4,58.7,46.2,34.7,37.8,33.6,30.5,86,64,35,30.45,30.31,10,1,10,0.00
2013-1-5,53.0,48.0,42.9,44.8,38.4,34.2,92,70,55,30.35,30.20,12,1,12,0.00
2013-1-6,51.6,46.9,41.9,48.5,45.1,40.4,95,93,87,30.28,30.16,12,1,12,1.00
2013-1-7,58.9,48.1,37.3,46.3,40.8,36.0,95,78,50,30.31,30.14,14,1,14,0.01
2013-1-8,60.5,54.9,48.9,59.4,51.6,42.8,96,89,75,30.19,30.06,16,1,16,3.42
2013-1-9,63.1,61.3,59.7,61.9,60.0,58.3,96,96,95,30.15,30.06,15,1,15,2.21
2013-1-10,71.4,64.6,63.1,69.3,63.2,61.5,97,95,93,30.14,29.98,15,2,30,1.67
2013-1-11,71.2,67.7,63.5,69.7,66.2,62.0,96,95,94,30.08,29.97,12,1,12,0.57
2013-1-12,79.0,72.2,68.1,71.0,68.5,66.5,96,89,68,30.01,29.87,24,4,24,0.00
2013-1-13,76.8,64.6,48.3,72.1,62.1,46.6,95,92,81,30.08,29.81,30,5,30,0.78
2013-1-14,48.2,45.2,38.4,46.9,43.8,37.1,96,95,93,30.15,30.03,18,2,18,1.82
2013-1-15,47.2,43.4,40.2,46.1,42.3,39.1,96,96,95,30.08,29.94,15,1,15,0.05
2013-1-16,40.1,37.4,36.4,39.0,36.0,35.1,96,95,93,30.16,30.01,22,4,22,0.14
2013-1-17,54.8,41.7,36.4,39.0,36.3,32.3,95,83,48,30.42,30.15,24,4,24,0.01
2013-1-18,58.3,44.9,36.3,40.8,37.4,34.2,95,77,44,30.52,30.37,14,1,14,0.00
2013-1-19,66.3,50.4,36.0,50.2,43.3,34.7,96,79,52,30.37,30.21,10,0,14,0.00
2013-1-20,68.0,51.5,39.0,49.5,41.6,36.1,96,74,32,30.26,30.11,8,0,8,0.00
2013-1-21,69.1,53.5,41.1,49.1,44.3,39.5,95,74,41,30.22,30.12,10,0,10,0.00
2013-1-22,64.1,48.1,43.7,44.9,42.2,37.8,94,82,46,30.34,30.19,8,0,12,0.00
2013-1-23,71.5,55.9,40.2,52.7,46.2,38.9,96,74,40,30.38,30.26,9,1,14,0.00
2013-1-24,73.3,60.0,45.9,60.6,53.6,44.5,96,81,60,30.32,30.20,15,1,15,0.00
2013-1-25,75.1,63.8,51.2,61.7,56.9,49.5,95,80,59,30.23,30.12,12,3,27,0.01
2013-1-26,77.0,63.0,53.2,64.9,57.2,51.8,96,83,55,30.23,30.14,12,1,12,0.00
2013-1-27,75.2,63.1,49.7,62.9,57.3,48.3,96,83,61,30.24,30.14,22,2,22,0.01
2013-1-28,76.3,65.9,57.4,66.8,62.0,55.7,95,88,69,30.22,30.08,20,1,20,0.00
2013-1-29,79.8,72.0,64.4,70.8,67.7,62.9,95,87,70,30.08,29.75,32,6,32,0.05
2013-1-30,73.9,65.2,44.8,69.8,57.8,32.0,94,79,37,30.18,29.64,36,8,36,1.59
2013-1-31,61.4,48.5,35.4,40.9,33.6,26.4,95,62,27,30.33,30.18,15,1,15,0.00